• In Hungary
  • List of Countries
  • For 7 days
  • Water Temperature
  • Satellite Maps
  • Weather Map
  • News
  • Weather Widgets
  • user-avatar
    Login

    Hourly Weather Holoy

    Today, 12 December, Tuesday

    Time Temperature Precipitation Wind Pressure Humidity
    00:00 -23°C° 0 mm 1 mps 602 mmHg 92%
    01:00 -23°C° 0 mm 1 mps 602 mmHg 91%
    02:00 -23°C° 0 mm 1 mps 602 mmHg 90%
    03:00 -23°C° 0 mm 1 mps 602 mmHg 89%
    04:00 -23°C° 0 mm 1 mps 602 mmHg 88%
    05:00 -23°C° 0 mm 1 mps 602 mmHg 87%
    06:00 -23°C° 0 mm 1 mps 602 mmHg 86%
    07:00 -24°C° 0 mm 1 mps 602 mmHg 83%
    08:00 -22°C° 0 mm 1 mps 602 mmHg 82%
    09:00 -21°C° 0 mm 1 mps 603 mmHg 80%
    10:00 -20°C° 0 mm 1 mps 603 mmHg 79%
    11:00 -19°C° 0 mm 1 mps 603 mmHg 78%
    12:00 -17°C° 0 mm 1 mps 603 mmHg 77%
    13:00 -18°C° 0 mm 2 mps 604 mmHg 76%
    14:00 -19°C° 0 mm 2 mps 603 mmHg 80%
    15:00 -20°C° 0 mm 2 mps 603 mmHg 84%
    16:00 -20°C° 0 mm 2 mps 602 mmHg 87%
    17:00 -21°C° 0 mm 2 mps 602 mmHg 88%
    18:00 -21°C° 0 mm 2 mps 602 mmHg 88%
    19:00 -21°C° 0 mm 2 mps 601 mmHg 89%
    20:00 -20°C° 0 mm 1 mps 601 mmHg 89%
    21:00 -20°C° 0 mm 1 mps 601 mmHg 90%
    22:00 -20°C° 0 mm 1 mps 601 mmHg 91%
    23:00 -20°C° 0.1 mm 1 mps 601 mmHg 92%

    Tomorrow, 13 December, Wednesday

    Time Temperature Precipitation Wind Pressure Humidity
    00:00 -20°C° 0.1 mm 1 mps 602 mmHg 94%
    01:00 -20°C° 0.1 mm 1 mps 602 mmHg 95%
    02:00 -20°C° 0.1 mm 1 mps 602 mmHg 95%
    03:00 -19°C° 0.1 mm 1 mps 603 mmHg 95%
    04:00 -19°C° 0.1 mm 1 mps 603 mmHg 96%
    05:00 -19°C° 0.1 mm 1 mps 603 mmHg 95%
    06:00 -20°C° 0.1 mm 1 mps 604 mmHg 95%
    07:00 -20°C° 0.1 mm 1 mps 604 mmHg 95%
    08:00 -19°C° 0.1 mm 1 mps 605 mmHg 93%
    09:00 -18°C° 0.1 mm 1 mps 605 mmHg 91%
    10:00 -18°C° 0.1 mm 1 mps 606 mmHg 89%
    11:00 -17°C° 0 mm 1 mps 606 mmHg 86%
    12:00 -17°C° 0 mm 1 mps 606 mmHg 83%
    13:00 -16°C° 0 mm 1 mps 607 mmHg 80%
    14:00 -17°C° 0 mm 1 mps 606 mmHg 83%
    15:00 -18°C° 0 mm 1 mps 606 mmHg 87%
    16:00 -19°C° 0 mm 0 mps 606 mmHg 91%
    17:00 -20°C° 0 mm 1 mps 606 mmHg 91%
    18:00 -20°C° 0 mm 1 mps 606 mmHg 91%
    19:00 -20°C° 0 mm 1 mps 606 mmHg 92%
    20:00 -20°C° 0 mm 1 mps 606 mmHg 92%
    21:00 -20°C° 0 mm 1 mps 606 mmHg 92%
    22:00 -20°C° 0 mm 1 mps 607 mmHg 92%
    23:00 -20°C° 0.1 mm 1 mps 607 mmHg 92%

    Day after tomorrow, 14 December, Thursday

    Time Temperature Precipitation Wind Pressure Humidity
    00:00 -20°C° 0.1 mm 1 mps 607 mmHg 92%
    01:00 -20°C° 0.1 mm 1 mps 607 mmHg 92%
    02:00 -21°C° 0.1 mm 0 mps 607 mmHg 92%
    03:00 -21°C° 0.1 mm 0 mps 607 mmHg 92%
    04:00 -21°C° 0.1 mm 0 mps 607 mmHg 93%
    05:00 -21°C° 0 mm 0 mps 606 mmHg 93%
    06:00 -22°C° 0 mm 0 mps 606 mmHg 93%
    07:00 -22°C° 0 mm 0 mps 606 mmHg 93%
    08:00 -21°C° 0 mm 0 mps 607 mmHg 91%
    09:00 -21°C° 0 mm 0 mps 607 mmHg 89%
    10:00 -20°C° 0 mm 0 mps 608 mmHg 87%
    11:00 -19°C° 0 mm 0 mps 608 mmHg 83%
    12:00 -18°C° 0 mm 0 mps 608 mmHg 79%
    13:00 -18°C° 0 mm 0 mps 608 mmHg 76%
    14:00 -19°C° 0 mm 0 mps 607 mmHg 79%
    15:00 -20°C° 0 mm 0 mps 607 mmHg 83%
    16:00 -21°C° 0 mm 0 mps 606 mmHg 86%
    17:00 -22°C° 0 mm 1 mps 606 mmHg 86%
    18:00 -22°C° 0 mm 1 mps 606 mmHg 86%
    19:00 -22°C° 0 mm 1 mps 607 mmHg 85%
    20:00 -25°C° 0 mm 2 mps 607 mmHg 83%
    21:00 -25°C° 0 mm 2 mps 607 mmHg 81%
    22:00 -25°C° 0 mm 2 mps 607 mmHg 79%
    23:00 -25°C° 0 mm 2 mps 607 mmHg 80%

    15 December, Friday

    Time Temperature Precipitation Wind Pressure Humidity
    00:00 -25°C° 0 mm 2 mps 607 mmHg 80%
    01:00 -24°C° 0 mm 2 mps 608 mmHg 80%
    02:00 -24°C° 0.1 mm 2 mps 608 mmHg 82%
    03:00 -24°C° 0.1 mm 2 mps 608 mmHg 83%
    04:00 -21°C° 0.1 mm 1 mps 608 mmHg 85%
    05:00 -21°C° 0.1 mm 1 mps 608 mmHg 86%
    06:00 -21°C° 0.1 mm 1 mps 608 mmHg 87%
    07:00 -21°C° 0.1 mm 1 mps 608 mmHg 87%
    08:00 -23°C° 0.1 mm 2 mps 609 mmHg 87%
    09:00 -23°C° 0.1 mm 2 mps 609 mmHg 86%
    10:00 -21°C° 0.1 mm 2 mps 610 mmHg 85%
    11:00 -18°C° 0.1 mm 1 mps 610 mmHg 83%
    12:00 -17°C° 0.1 mm 1 mps 609 mmHg 80%
    13:00 -17°C° 0.1 mm 1 mps 609 mmHg 78%
    14:00 -18°C° 0 mm 1 mps 609 mmHg 81%
    15:00 -19°C° 0 mm 1 mps 609 mmHg 84%
    16:00 -20°C° 0 mm 1 mps 608 mmHg 88%
    17:00 -20°C° 0 mm 1 mps 608 mmHg 87%
    18:00 -20°C° 0 mm 1 mps 608 mmHg 86%
    19:00 -23°C° 0 mm 2 mps 609 mmHg 85%
    20:00 -23°C° 0 mm 2 mps 609 mmHg 84%
    21:00 -23°C° 0 mm 2 mps 609 mmHg 82%
    22:00 -21°C° 0 mm 2 mps 609 mmHg 81%
    23:00 -21°C° 0 mm 2 mps 608 mmHg 80%

    16 December, Saturday

    Time Temperature Precipitation Wind Pressure Humidity
    00:00 -21°C° 0 mm 2 mps 608 mmHg 80%
    01:00 -21°C° 0 mm 2 mps 608 mmHg 79%
    02:00 -21°C° 0 mm 2 mps 608 mmHg 79%
    03:00 -21°C° 0 mm 2 mps 608 mmHg 79%
    04:00 -21°C° 0 mm 2 mps 607 mmHg 79%
    05:00 -20°C° 0 mm 2 mps 607 mmHg 80%
    06:00 -20°C° 0 mm 2 mps 608 mmHg 81%
    07:00 -20°C° 0 mm 2 mps 608 mmHg 81%
    08:00 -20°C° 0 mm 2 mps 608 mmHg 81%
    09:00 -17°C° 0 mm 1 mps 608 mmHg 81%
    10:00 -16°C° 0 mm 1 mps 608 mmHg 80%
    11:00 -15°C° 0 mm 1 mps 608 mmHg 79%
    12:00 -14°C° 0 mm 1 mps 608 mmHg 77%
    13:00 -13°C° 0 mm 1 mps 608 mmHg 76%
    14:00 -14°C° 0 mm 1 mps 607 mmHg 79%
    15:00 -15°C° 0 mm 1 mps 606 mmHg 83%
    16:00 -16°C° 0 mm 1 mps 606 mmHg 86%
    17:00 -16°C° 0.1 mm 1 mps 606 mmHg 87%
    18:00 -16°C° 0.1 mm 1 mps 606 mmHg 88%
    19:00 -16°C° 0.1 mm 1 mps 606 mmHg 88%
    20:00 -16°C° 0.1 mm 1 mps 606 mmHg 89%
    21:00 -16°C° 0.1 mm 1 mps 606 mmHg 90%
    22:00 -16°C° 0.1 mm 1 mps 606 mmHg 90%
    23:00 -16°C° 0.1 mm 1 mps 606 mmHg 91%

    17 December, Sunday

    Time Temperature Precipitation Wind Pressure Humidity
    00:00 -16°C° 0.1 mm 1 mps 606 mmHg 91%
    01:00 -16°C° 0.1 mm 1 mps 606 mmHg 91%
    02:00 -16°C° 0.1 mm 1 mps 606 mmHg 90%
    03:00 -16°C° 0.1 mm 1 mps 606 mmHg 90%
    04:00 -17°C° 0.1 mm 1 mps 606 mmHg 89%
    05:00 -17°C° 0.1 mm 1 mps 606 mmHg 89%
    06:00 -17°C° 0.1 mm 1 mps 606 mmHg 88%
    07:00 -17°C° 0.1 mm 1 mps 606 mmHg 87%
    08:00 -16°C° 0.1 mm 1 mps 607 mmHg 86%
    09:00 -16°C° 0.1 mm 1 mps 607 mmHg 85%
    10:00 -15°C° 0.1 mm 1 mps 607 mmHg 84%
    11:00 -14°C° 0.1 mm 1 mps 607 mmHg 83%
    12:00 -13°C° 0.1 mm 1 mps 607 mmHg 81%
    13:00 -12°C° 0.1 mm 1 mps 607 mmHg 79%
    14:00 -13°C° 0.1 mm 1 mps 607 mmHg 83%
    15:00 -14°C° 0.1 mm 1 mps 607 mmHg 86%
    16:00 -15°C° 0.1 mm 1 mps 606 mmHg 89%
    17:00 -16°C° 0.1 mm 1 mps 606 mmHg 89%
    18:00 -16°C° 0.1 mm 1 mps 606 mmHg 89%
    19:00 -16°C° 0.1 mm 1 mps 606 mmHg 88%
    20:00 -16°C° 0.1 mm 1 mps 606 mmHg 88%
    21:00 -16°C° 0.1 mm 1 mps 606 mmHg 88%
    22:00 -16°C° 0.1 mm 1 mps 606 mmHg 88%
    23:00 -16°C° 0.2 mm 1 mps 606 mmHg 89%
    Show more